Location: Alafon
(8.4500°N, 4.2333°E)
Time: 23:47:00
(UTC+00:00)

Explorer 7 - Pass Details

Date: 24 July 2021
Orbit: 484 x 676 km, 50.3° (Epoch: 22 September)

Event Time Altitude Azimuth Distance (km) Brightness Sun altitude
Rises 14:49:22 0° 347° (NNW) 2,957 10.9 45.1°
Reaches altitude 10° 14:52:18 10° 5° (N) 2,071 10.0 44.4°
Maximum altitude 14:55:39 19° 50° (NE) 1,594 9.1 43.7°
Drops below altitude 10° 14:59:01 10° 94° (E) 2,100 9.5 42.9°
Sets 15:02:01 0° 112° (ESE) 3,015 10.1 42.2°
